Flag for Germany Weather past 2 weeks in Fürth, Bavaria, Germany

Now
52 °F

Clear.


Feels Like: 51 °F
Forecast: 49 / 70 °F
Wind: 5 mph from Southeast

Location: Nuernberg

Current Time: Aug 22, 2014 at 12:32:06 AM

Latest Report: Aug 21, 2014 at 11:50 PM


Visibility: 10 mi

Pressure: 30.04 "Hg

Humidity: 82%

Dew point: 46 °F

Location of FürthLocation

Historic Weather in Fürth — Graph

°F

Fürth temperature yesterday

Maximum temperature yesterday: 66 °F (at 2:50 PM)
Minimum temperature yesterday: 50 °F (at 6:50 AM)
Average temperature yesterday: 58 °F

Past Weeks' High & Low Weather Summary

 TemperatureHumidityPressure
High84 °F (Aug 10, 2:20 PM)100% (Aug 7, 7:50 AM)30.12 "Hg (Aug 7, 7:50 AM)
Low46 °F (Aug 19, 6:50 AM)35% (Aug 10, 4:50 PM)29.68 "Hg (Aug 13, 2:50 PM)
Average62 °F73%29.94 "Hg
* Reported Aug 6 11:20 PM — Aug 21 11:20 PM, Fürth, Weather by CustomWeather, © 2014

Note: Actual official high and low records may vary slightly from our data, if they occured in-between our weather recording intervals... More about our weather records

Advertising

Fürth weather history for previous 24 hours

 ConditionsComfort  
Time TempWeatherWind HumidityBarometerVisibility
11:20 PM
Aug 21
52 °FClear.5 mph82%30.04 "Hg10 mi
10:50 PM52 °FClear.1 mph82%30.04 "Hg10 mi
10:20 PM52 °FClear.1 mph82%30.04 "Hg10 mi
9:50 PM54 °FClear.1 mph72%30.04 "Hg10 mi
9:20 PM54 °FSunny.1 mph77%30.01 "Hg10 mi
8:50 PM57 °FSunny.1 mph63%30.01 "Hg10 mi
8:20 PM59 °FSunny.1 mph59%30.01 "Hg10 mi
7:50 PM63 °FSunny.1 mph56%30.01 "Hg10 mi
7:20 PM64 °FSunny.2 mph49%30.01 "Hg10 mi
6:50 PM64 °FPassing clouds.3 mph49%30.01 "HgN/A
6:20 PM64 °FPassing clouds.5 mph46%30.01 "HgN/A
5:50 PM66 °FPassing clouds.6 mph43%30.01 "HgN/A
5:20 PM66 °FPassing clouds.7 mph43%30.01 "HgN/A
4:50 PM66 °FPassing clouds.5 mph43%30.01 "HgN/A
4:20 PM66 °FPassing clouds.9 mph43%30.01 "HgN/A
3:50 PM66 °FPassing clouds.9 mph43%30.01 "HgN/A
3:20 PM66 °FSunny.10 mph40%30.04 "Hg10 mi
2:50 PM66 °FPassing clouds.7 mph43%30.04 "HgN/A
2:20 PM64 °FPassing clouds.8 mph46%30.04 "HgN/A
1:50 PM64 °FPassing clouds.7 mph46%30.04 "HgN/A
1:20 PM64 °FPassing clouds.10 mph49%30.04 "HgN/A
12:50 PM64 °FPassing clouds.8 mph49%30.04 "HgN/A
12:20 PM63 °FScattered clouds.7 mph52%30.07 "HgN/A
11:50 AM63 °FScattered clouds.10 mph52%30.07 "HgN/A
11:20 AM63 °FScattered clouds.10 mph56%30.07 "HgN/A
10:50 AM61 °FScattered clouds.9 mph59%30.07 "HgN/A
10:20 AM59 °FPassing clouds.6 mph68%30.07 "HgN/A
9:50 AM59 °FPassing clouds.3 mph68%30.07 "HgN/A
9:20 AM57 °FPassing clouds.5 mph72%30.04 "HgN/A
8:50 AM55 °FPassing clouds.5 mph77%30.04 "HgN/A
8:20 AM55 °FScattered showers. Passing clouds.1 mph82%30.04 "HgN/A
7:50 AM52 °FScattered showers. Scattered clouds.1 mph94%30.04 "HgN/A
7:20 AM52 °FScattered showers. Scattered clouds.1 mph94%30.04 "HgN/A
6:50 AM50 °FScattered showers. Passing clouds.1 mph94%30.04 "HgN/A
6:20 AM52 °FClear.2 mph88%30.04 "Hg10 mi
5:50 AM52 °FPartly cloudy.1 mph88%30.04 "HgN/A
5:20 AM52 °FPassing clouds.No wind94%30.01 "HgN/A
4:50 AM52 °FClear.No wind94%30.01 "Hg10 mi
4:20 AM52 °FClear.1 mph94%30.01 "Hg10 mi
3:50 AM52 °FClear.2 mph94%30.01 "Hg10 mi
3:20 AM52 °FClear.1 mph94%30.01 "Hg10 mi
2:50 AM52 °FClear.1 mph94%30.01 "Hg10 mi
2:20 AM52 °FClear.2 mph94%30.01 "Hg10 mi
1:50 AM52 °FClear.2 mph88%30.01 "Hg10 mi
1:20 AM52 °FClear.No wind88%30.01 "Hg10 mi
12:50 AM54 °FClear.1 mph88%30.01 "Hg10 mi
12:20 AM54 °FClear.2 mph88%30.01 "Hg10 mi
Weather by CustomWeather, © 2014

See weather overviewHow to use our weather pages